Find Starlink 31131

NORAD ID: 58673 Int'l Des: 2023-211 Owner: SPXS Country: US Constellation: starlink operational
LEOCIRCULAR

Live-Position

3D-Globus wird geladen...

Über Starlink 31131

Beschreibung wird geladen...

Nächste Überflüge

Passes for default location (London). Set your location on the main map for personalized predictions.

Höhenverlauf

Loading altitude history...

Zweizeiliger Elementsatz

1 58673U 23211G 26133.19830472 -.00000723 00000-0 -16768-4 0 9993
2 58673 43.0032 70.1727 0000603 271.3019 88.7763 15.27576005133733
Epoch: 13. Mai 2026 • Age: 12 hours

Aktueller Status

Höhe 490.7 km
Geschwindigkeit 7.62 km/s
Subsatellitenpunkt -29.86°S, 98.6°W
Startdatum 29. Dez. 2023
Alter 2.3 years
Typ internet

Technische Details

Klassifizierung Payload
Masse 730.00 kg
Trockenmasse 700.00 kg
Gesamtmasse 730.00 kg
Länge 0.30 m
Durchmesser 4.10 m
Spannweite 29.00 m
Form Box + pan
Hersteller SPXS
Bus-Typ Starlink V2M
Phasenstatus In Orbit
Besitzer/Staat SPXS/US

Most Searched